Change the Weather History Date:

Tuesday, November 6, 2012

  Actual Average Record
Temperature  
Mean Temperature 61 °F 64 °F  
Max Temperature 71 °F 75 °F 89 °F (1916)
Min Temperature 50 °F 53 °F 31 °F (1939)
Degree Days  
Heating Degree Days 4 4  
Month to date heating degree days 4 19  
Since 1 July heating degree days 46 55  
Cooling Degree Days 0 3  
Month to date cooling degree days 30 18  
Year to date cooling degree days 3168 2751  
Growing Degree Days 10 (Base 50)    
Moisture  
Dew Point 48 °F    
Average Humidity 70    
Maximum Humidity 100    
Minimum Humidity 40    
Precipitation  
Precipitation 0.00 in 0.16 in 2.79 in (1943)
Month to date precipitation 1.56 0.96  
Year to date precipitation 66.14 49.34  
Snow  
Snow 0.00 in 0.00 in 0.00 in ()
Month to date snowfall 0.0 0.0  
Since 1 July snowfall 0.0 0.0  
Since 1 September snowfall 0.0 0.0  
Snow Depth 0.00 in    
Sea Level Pressure  
Sea Level Pressure 30.09 in    
Wind  
Wind Speed 6 mph (NNW)    
Max Wind Speed 15 mph    
Max Gust Speed 20 mph    
Visibility 10 miles    
Events      
T = Trace of Precipitation, MM = Missing Value Source: NWS Daily Summary

Daily Weather History Graph

Daily Weather History Graph

Search for Another Location

Airport or City:

Trip Planner

Search our weather history database for the weather conditions in past years. The results will help you decide how hot, cold, wet, or windy it might be!

Date:

Astronomy

Nov. 06, 2012 Rise Set
Actual Time 6:31 AM CST 5:21 PM CST
Civil Twilight 6:06 AM CST 5:46 PM CST
Nautical Twilight 5:37 AM CST 6:14 PM CST
Astronomical Twilight 5:09 AM CST 6:43 PM CST
Moon 11:55 PM CST (11/6) 12:27 PM CST (11/6)
Length of Visible Light 11h 40m
Length of Day
10h 50m
Waning Gibbous, 53% of the Moon is Illuminated
Nov 6
Waning Gibbous
Nov 6
Last Quarter
Nov 13
New
Nov 20
First Quarter
Nov 28
Full

Hourly Weather History & Observations

Time (CST) Temp. Dew Point Humidity Pressure Visibility Wind Dir Wind Speed Gust Speed Precip Events Conditions
12:53 AM 55.0 °F 54.0 °F 96% 30.01 in 9.0 mi Calm Calm - N/A   Clear
1:53 AM 54.0 °F 53.1 °F 97% 30.02 in 7.0 mi Calm Calm - N/A   Clear
2:53 AM 54.0 °F 52.0 °F 93% 30.04 in 10.0 mi WNW 4.6 mph - N/A   Clear
3:53 AM 55.0 °F 51.1 °F 86% 30.04 in 10.0 mi NW 5.8 mph - N/A   Clear
4:53 AM 55.0 °F 50.0 °F 83% 30.06 in 10.0 mi NNW 8.1 mph - N/A   Clear
5:53 AM 53.1 °F 48.0 °F 83% 30.07 in 10.0 mi NNW 5.8 mph - N/A   Clear
6:53 AM 53.1 °F 48.0 °F 83% 30.09 in 10.0 mi NNW 8.1 mph - N/A   Clear
7:53 AM 55.9 °F 48.0 °F 75% 30.12 in 10.0 mi North 10.4 mph - N/A   Clear
8:53 AM 57.9 °F 48.0 °F 70% 30.13 in 10.0 mi North 12.7 mph - N/A   Clear
9:53 AM 61.0 °F 48.0 °F 62% 30.13 in 10.0 mi NNW 12.7 mph - N/A   Clear
10:53 AM 63.0 °F 48.0 °F 58% 30.12 in 10.0 mi NNW 10.4 mph - N/A   Clear
11:53 AM 66.9 °F 46.0 °F 47% 30.10 in 10.0 mi NNW 10.4 mph - N/A   Clear
12:53 PM 66.9 °F 46.9 °F 49% 30.08 in 10.0 mi NNW 8.1 mph - N/A   Clear
1:53 PM 69.1 °F 45.0 °F 42% 30.06 in 10.0 mi NW 10.4 mph - N/A   Clear
2:53 PM 70.0 °F 44.1 °F 39% 30.06 in 10.0 mi NW 11.5 mph - N/A   Clear
3:53 PM 70.0 °F 44.1 °F 39% 30.06 in 10.0 mi North 8.1 mph - N/A   Clear
4:53 PM 66.9 °F 44.1 °F 44% 30.06 in 10.0 mi NNW 5.8 mph - N/A   Clear
5:53 PM 60.1 °F 46.9 °F 62% 30.08 in 10.0 mi North 3.5 mph - N/A   Clear
6:53 PM 54.0 °F 50.0 °F 86% 30.10 in 10.0 mi Calm Calm - N/A   Clear
7:53 PM 53.1 °F 48.9 °F 86% 30.12 in 10.0 mi WNW 3.5 mph - N/A   Clear
8:53 PM 52.0 °F 48.0 °F 86% 30.12 in 10.0 mi Calm Calm - N/A   Clear
9:53 PM 51.1 °F 48.0 °F 89% 30.12 in 10.0 mi Calm Calm - N/A   Clear
10:53 PM 51.1 °F 48.0 °F 89% 30.12 in 10.0 mi Calm Calm - N/A   Clear
11:53 PM 50.0 °F 48.0 °F 93% 30.12 in 10.0 mi Calm Calm - N/A   Clear